Flag for Hungary Weather past 2 weeks in Debrecen, Hungary

Now
56 °F

Cool.


Feels Like: 56 °F
Forecast: 45 / 62 °F
Wind: 3 mph from Northeast

Location: Debrecen


UV Index: 0 (Low)

Visibility: N/A


Pressure: 29.64 "Hg

Humidity: 66%

Dew point: 44 °F

Location of DebrecenLocation

Historic Weather in Debrecen

°F

Debrecen temperature yesterday

Maximum temperature yesterday: 72 °F (at 3:00 PM)
Minimum temperature yesterday: 46 °F (at 6:00 AM)
Average temperature yesterday: 60 °F

Past Weeks' High & Low Weather Summary

 TemperatureHumidityPressure
High72 °F (Apr 18, 3:00 PM)99% (Apr 7, 7:00 AM)30.13 "Hg (Apr 7, 7:00 AM)
Low33 °F (Apr 10, 7:00 AM)31% (Apr 18, 3:00 PM)29.64 "Hg (Apr 18, 7:00 PM)
Average52 °F72%29.95 "Hg
* Reported Apr 4 2:00 AM — Apr 19 2:00 AM, Debrecen, Weather by CustomWeather, © 2014

Note: Actual official high and low records may vary slightly from our data, if they occured in-between our weather recording intervals... More about our weather records

Advertising

Historic Weather Conditions — Data for Previous 24 hours

 ConditionsComfort  
Time TempWeatherWind HumidityBarometerVisibility
2:00 AM
Apr 19
56 °FCool.3 mph66%29.64 "HgN/A
1:00 AM55 °FCool.5 mph71%29.66 "HgN/A
12:00 AM59 °FCool.3 mph63%29.66 "HgN/A
11:00 PM
Apr 18
61 °FRefreshingly cool.3 mph59%29.67 "HgN/A
10:00 PM62 °FRefreshingly cool.5 mph56%29.67 "HgN/A
9:00 PM65 °FOvercast.6 mph46%29.67 "Hg19 mi
8:00 PM67 °FOvercast.3 mph41%29.65 "Hg19 mi
7:00 PM68 °FOvercast.3 mph44%29.64 "Hg25 mi
6:00 PM70 °FOvercast.5 mph42%29.65 "Hg25 mi
5:00 PM70 °FOvercast.3 mph43%29.65 "Hg25 mi
4:00 PM72 °FOvercast.5 mph34%29.66 "Hg25 mi
3:00 PM72 °FOvercast.1 mph31%29.67 "Hg25 mi
2:00 PM71 °FOvercast.1 mph32%29.69 "Hg22 mi
1:00 PM68 °FPartly sunny.3 mph40%29.70 "Hg16 mi
12:00 PM67 °FPartly sunny.2 mph47%29.72 "Hg12 mi
11:00 AM63 °FOvercast.5 mph52%29.74 "Hg12 mi
10:00 AM59 °FOvercast.6 mph63%29.76 "Hg16 mi
9:00 AM54 °FOvercast.6 mph71%29.77 "Hg12 mi
8:00 AM50 °FOvercast.6 mph78%29.79 "Hg9 mi
7:00 AM49 °FPartly sunny.5 mph79%29.80 "Hg12 mi
6:00 AM46 °FOvercast.3 mph87%29.81 "Hg12 mi
5:00 AM46 °FOvercast.3 mph85%29.82 "Hg16 mi
4:00 AM47 °FCool.6 mph82%29.83 "HgN/A
3:00 AM47 °FCool.6 mph82%29.85 "HgN/A
Weather by CustomWeather, © 2014

See weather overview